Вернуться в каталог

FENGYUN 1C DEB

АктивенSSO
NORAD 30206·DEBRIS·🇨🇳 China

Запущен May 10, 1999 с Taiyuan Satellite Launch Center

Loading…

Ближайшие Пролёты (ближайшие 24 часа)

TLE

СвежийSource: Space-Track

Эпоха: Sep 13, 2026, 22:22 UTC

1 30206U 99025VP  26256.93254243  .00000792  00000-0  19157-3 0  9993
2 30206  98.2422 255.0129 0141959 272.3856  86.1092 14.50015199 33878

Отслеживайте FENGYUN 1C DEB в реальном времени с AllMySat

Download on the App Store